Weather History for KCEC - February, 2012

Change the Weather History Date:

Monday, February 13, 2012

  Actual Average Record
Temperature  
Mean Temperature 46 °F 48 °F  
Max Temperature 51 °F 53 °F 73 °F (1996)
Min Temperature 41 °F 42 °F 28 °F (1949)
Degree Days  
Heating Degree Days 19 18  
Month to date heating degree days 204 234  
Since 1 July heating degree days 2711 2920  
Cooling Degree Days 0 0  
Month to date cooling degree days 0 0  
Year to date cooling degree days 0 0  
Moisture  
Dew Point 42 °F    
Average Humidity 84    
Maximum Humidity 100    
Minimum Humidity 68    
Precipitation  
Precipitation 0.23 in 0.31 in 2.65 in (1961)
Month to date precipitation 1.03 4.35  
Year to date precipitation 13.23 14.74  
Since 1 July precipitation 30.86  
Snow  
Snow 0.00 in - - ()
Month to date snowfall 0.0  
Since 1 July snowfall 0.0  
Snow Depth 0.00 in    
Sea Level Pressure  
Sea Level Pressure 30.01 in    
Wind  
Wind Speed 16 mph (NNW)    
Max Wind Speed 22 mph    
Max Gust Speed 32 mph    
Visibility 8 miles    
Events Rain    
T = Trace of Precipitation, MM = Missing Value Source: NWS Daily Summary

Daily Weather History Graph

Daily Weather History Graph

Search for Another Location

Airport or City:

Trip Planner

Search our weather history database for the weather conditions in past years. The results will help you decide how hot, cold, wet, or windy it might be!

Date:

Astronomy

Feb. 13, 2012 Rise Set
Actual Time 7:15 AM PST 5:47 PM PST
Civil Twilight 6:47 AM PST 6:15 PM PST
Nautical Twilight 6:14 AM PST 6:48 PM PST
Astronomical Twilight 5:42 AM PST 7:20 PM PST
Moon No Moon Rise 10:11 AM PST (2/13)
Length of Visible Light 11h 28m
Length of Day
10h 31m
Waning Gibbous, 60% of the Moon is Illuminated
Feb 13
Waning Gibbous
Feb 14
Last Quarter
Feb 21
New
Feb 29
First Quarter
Mar 8
Full

Hourly Weather History & Observations

Time (PST) Temp. Windchill Dew Point Humidity Pressure Visibility Wind Dir Wind Speed Gust Speed Precip Events Conditions
12:37 AM 46.4 °F - 46.4 °F 100% 29.81 in 10.0 mi Calm Calm - 0.00 in   Overcast
12:49 AM 46.4 °F 40.4 °F 44.6 °F 93% 29.82 in 8.0 mi North 13.8 mph 20.7 mph 0.00 in   Overcast
12:56 AM 46.9 °F - 44.1 °F 90% 29.83 in 5.0 mi North 12.7 mph 20.7 mph 0.02 in Rain Rain
1:03 AM 46.4 °F 41.5 °F 44.6 °F 93% 29.83 in 2.5 mi North 10.4 mph 20.7 mph 0.01 in Rain Rain
1:31 AM 44.6 °F 40.2 °F 42.8 °F 93% 29.84 in 2.5 mi North 8.1 mph 18.4 mph 0.13 in Rain Rain
1:38 AM 44.6 °F 40.2 °F 42.8 °F 93% 29.84 in 4.0 mi North 8.1 mph - 0.14 in Rain Rain
1:51 AM 44.6 °F 42.2 °F 44.6 °F 100% 29.85 in 6.0 mi North 4.6 mph - 0.17 in Rain Light Rain
1:56 AM 45.0 °F 41.2 °F 44.1 °F 97% 29.86 in 7.0 mi North 6.9 mph - 0.17 in Rain Light Rain
2:56 AM 45.0 °F 41.2 °F 44.1 °F 97% 29.88 in 10.0 mi NNE 6.9 mph - 0.01 in   Overcast
3:05 AM 44.6 °F 40.7 °F 44.6 °F 100% 29.88 in 10.0 mi North 6.9 mph - N/A   Overcast
3:19 AM 44.6 °F 39.7 °F 42.8 °F 93% 29.89 in 9.0 mi North 9.2 mph - 0.00 in Rain Light Rain
3:56 AM 45.0 °F 39.7 °F 42.1 °F 90% 29.92 in 8.0 mi North 10.4 mph 19.6 mph 0.01 in Rain Light Rain
4:56 AM 46.0 °F 39.6 °F 43.0 °F 89% 29.95 in 9.0 mi NNW 15.0 mph 25.3 mph 0.02 in Rain Light Rain
5:56 AM 46.0 °F 39.3 °F 42.1 °F 86% 29.97 in 10.0 mi NNW 16.1 mph - 0.00 in Rain Light Rain
6:56 AM 46.0 °F 39.9 °F 41.0 °F 83% 29.98 in 10.0 mi NNW 13.8 mph 20.7 mph 0.00 in   Overcast
7:56 AM 46.0 °F 39.0 °F 41.0 °F 83% 30.00 in 9.0 mi NNW 17.3 mph 24.2 mph N/A   Mostly Cloudy
8:56 AM 46.9 °F - 42.1 °F 83% 30.02 in 9.0 mi NNW 15.0 mph 26.5 mph N/A   Mostly Cloudy
9:56 AM 48.9 °F - 43.0 °F 80% 30.04 in 9.0 mi NNW 17.3 mph 20.7 mph N/A   Mostly Cloudy
10:56 AM 50.0 °F - 43.0 °F 77% 30.06 in 10.0 mi NNW 18.4 mph 26.5 mph N/A   Scattered Clouds
11:56 AM 50.0 °F - 43.0 °F 77% 30.07 in 8.0 mi NNW 21.9 mph 32.2 mph N/A   Overcast
12:56 PM 50.0 °F - 43.0 °F 77% 30.06 in 8.0 mi NW 21.9 mph 27.6 mph 0.00 in   Mostly Cloudy
1:56 PM 50.0 °F - 41.0 °F 71% 30.07 in 9.0 mi NW 21.9 mph 28.8 mph N/A   Mostly Cloudy
2:56 PM 51.1 °F - 41.0 °F 68% 30.08 in 10.0 mi NW 20.7 mph 28.8 mph N/A   Mostly Cloudy
3:56 PM 48.9 °F - 42.1 °F 77% 30.10 in 9.0 mi NW 19.6 mph 28.8 mph N/A   Scattered Clouds
4:09 PM 48.2 °F - 42.8 °F 82% 30.11 in 9.0 mi NW 18.4 mph 27.6 mph N/A   Mostly Cloudy
4:36 PM 48.2 °F - 42.8 °F 82% 30.11 in 9.0 mi NNW 13.8 mph 25.3 mph N/A   Overcast
4:48 PM 48.2 °F - 42.8 °F 82% 30.11 in 10.0 mi NNW 15.0 mph 25.3 mph N/A   Overcast
4:56 PM 48.0 °F - 43.0 °F 83% 30.11 in 9.0 mi NNW 12.7 mph 20.7 mph N/A   Overcast
5:34 PM 46.4 °F 40.4 °F 42.8 °F 87% 30.10 in 8.0 mi NNW 13.8 mph 21.9 mph N/A   Overcast
5:56 PM 46.9 °F - 42.1 °F 83% 30.11 in 9.0 mi NNW 16.1 mph 25.3 mph N/A   Overcast
6:33 PM 46.4 °F 39.8 °F 42.8 °F 87% 30.12 in 10.0 mi NNW 16.1 mph 26.5 mph N/A   Mostly Cloudy
6:56 PM 46.9 °F - 42.1 °F 83% 30.12 in 10.0 mi NNW 17.3 mph - N/A   Overcast
7:56 PM 46.0 °F 39.6 °F 42.1 °F 86% 30.13 in 10.0 mi NNW 15.0 mph - N/A   Partly Cloudy
8:56 PM 46.0 °F 41.4 °F 42.1 °F 86% 30.12 in 9.0 mi North 9.2 mph - N/A   Partly Cloudy
9:22 PM 44.6 °F 42.2 °F 41.0 °F 87% 30.10 in 9.0 mi NE 4.6 mph - N/A   Mostly Cloudy
9:42 PM 42.8 °F - 39.2 °F 87% 30.09 in 10.0 mi Calm Calm - N/A   Scattered Clouds
9:51 PM 42.8 °F 38.6 °F 39.2 °F 87% 30.10 in 10.0 mi WNW 6.9 mph - N/A   Partly Cloudy
9:56 PM 42.8 °F 38.6 °F 37.4 °F 81% 30.10 in 7.0 mi WNW 6.9 mph - N/A   Partly Cloudy
10:56 PM 46.0 °F 40.6 °F 41.0 °F 83% 30.12 in 10.0 mi NNW 11.5 mph - N/A   Clear
11:56 PM 41.0 °F - 39.2 °F 93% 30.10 in 10.0 mi Calm Calm - N/A   Clear